Location: Presov
(49.0000°N, 21.2500°E)
Time: 20:40:32
(UTC+02:00)

ISS - Pass Details

Date: 26 May 2025
Orbit: 415 x 417 km, 51.6° (Epoch: 16 June)

Event Time Altitude Azimuth Distance (km) Brightness Sun altitude
Rises 21:30:20 0° 282° (WNW) 2,360 1.1 -8.9°
Reaches altitude 10° 21:33:12 10° 256° (WSW) 1,491 -0.6 -9.2°
Maximum altitude 21:34:58 14° 224° (SW) 1,282 -1.3 -9.4°
Drops below altitude 10° 21:36:44 10° 192° (SSW) 1,484 -1.3 -9.6°
Enters shadow 21:37:29 - 182° (S) 1,669 -1.2 -9.7°
